Station Historical Data
Daily Summary for March 16, 2017 Units:  English    Metric   Both
Next Day »
Daily Weekly Monthly Yearly Custom
  High: Low: Average:
Temperature: 66.6 °F 47.8 °F 56.1 °F
Dew Point: 52.0 °F 39.9 °F 47 °F
Humidity: 85% 38% 73%
Wind Speed: 12.0mph 0.0mph 1.3mph
Wind Gust: 12.0mph - -
Wind- - SSE
Pressure: 30.22 in 30.13 in -
Precipitation: 0.00 in    
Historical Graphs
 
 
Tabular Data for March 16, 2017
Time Temperature Dew Point Pressure Wind Wind Speed Wind Gust Humidity Rainfall Rate (Hourly) solar Conditions
00:03 53.3 °F 47.3 °F 30.17 in Calm   6.0 mph 80% 0.00 in 0.00 W/m2
00:08 53.3 °F 47.3 °F 30.17 in SE 4.0 mph 5.0 mph 80% 0.00 in 0.00 W/m2
00:13 53.2 °F 47.2 °F 30.17 in Calm   4.0 mph 80% 0.00 in 0.00 W/m2
00:18 53.2 °F 46.9 °F 30.18 in Calm   4.0 mph 79% 0.00 in 0.00 W/m2
00:23 53.0 °F 47.0 °F 30.18 in Calm     80% 0.00 in 0.00 W/m2
00:28 53.0 °F 46.7 °F 30.18 in Calm     79% 0.00 in 0.00 W/m2
00:33 52.8 °F 46.8 °F 30.18 in Calm     80% 0.00 in 0.00 W/m2
00:38 52.6 °F 46.6 °F 30.18 in Calm     80% 0.00 in 0.00 W/m2
00:43 52.6 °F 46.6 °F 30.18 in Calm     80% 0.00 in 0.00 W/m2
00:48 52.5 °F 46.5 °F 30.18 in Calm     80% 0.00 in 0.00 W/m2
00:53 52.4 °F 46.8 °F 30.18 in Calm     81% 0.00 in 0.00 W/m2
00:58 52.4 °F 46.8 °F 30.18 in Calm     81% 0.00 in 0.00 W/m2
01:03 52.4 °F 46.8 °F 30.18 in Calm   4.0 mph 81% 0.00 in 0.00 W/m2
01:08 52.3 °F 46.7 °F 30.18 in SE 2.0 mph 6.0 mph 81% 0.00 in 0.00 W/m2
01:14 52.2 °F 46.5 °F 30.18 in SE 6.0 mph 7.0 mph 81% 0.00 in 0.00 W/m2
01:19 52.2 °F 46.5 °F 30.17 in Calm   8.0 mph 81% 0.00 in 0.00 W/m2
01:24 52.1 °F 46.5 °F 30.17 in Calm   6.0 mph 81% 0.00 in 0.00 W/m2
01:29 51.9 °F 46.6 °F 30.17 in Calm   7.0 mph 82% 0.00 in 0.00 W/m2
01:34 51.8 °F 46.8 °F 30.17 in ESE 5.0 mph 7.0 mph 83% 0.00 in 0.00 W/m2
01:39 51.8 °F 46.8 °F 30.17 in Calm   8.0 mph 83% 0.00 in 0.00 W/m2
01:44 51.8 °F 47.1 °F 30.18 in Calm   5.0 mph 84% 0.00 in 0.00 W/m2
01:49 51.7 °F 47.0 °F 30.17 in Calm   7.0 mph 84% 0.00 in 0.00 W/m2
01:54 51.6 °F 46.9 °F 30.17 in ESE 2.0 mph 12.0 mph 84% 0.00 in 0.00 W/m2
01:59 51.5 °F 46.8 °F 30.17 in Calm   5.0 mph 84% 0.00 in 0.00 W/m2
02:04 51.4 °F 46.7 °F 30.17 in ESE 1.0 mph 7.0 mph 84% 0.00 in 0.00 W/m2
02:09 51.3 °F 46.6 °F 30.18 in ESE 1.0 mph 7.0 mph 84% 0.00 in 0.00 W/m2
02:14 51.2 °F 46.5 °F 30.18 in ESE 1.0 mph 7.0 mph 84% 0.00 in 0.00 W/m2
02:19 51.2 °F 46.5 °F 30.18 in ESE 2.0 mph 6.0 mph 84% 0.00 in 0.00 W/m2
02:24 51.1 °F 46.4 °F 30.18 in ESE 5.0 mph 6.0 mph 84% 0.00 in 0.00 W/m2
02:29 51.0 °F 46.3 °F 30.18 in Calm   6.0 mph 84% 0.00 in 0.00 W/m2
02:34 51.0 °F 46.3 °F 30.17 in Calm   7.0 mph 84% 0.00 in 0.00 W/m2
02:39 50.9 °F 46.2 °F 30.17 in ESE 1.0 mph 4.0 mph 84% 0.00 in 0.00 W/m2
02:44 50.9 °F 46.2 °F 30.17 in Calm   8.0 mph 84% 0.00 in 0.00 W/m2
02:49 50.9 °F 46.2 °F 30.17 in ESE 1.0 mph 5.0 mph 84% 0.00 in 0.00 W/m2
02:54 50.8 °F 46.2 °F 30.17 in ESE 4.0 mph 6.0 mph 84% 0.00 in 0.00 W/m2
02:59 50.8 °F 46.2 °F 30.17 in Calm   2.0 mph 84% 0.00 in 0.00 W/m2
03:04 50.8 °F 46.2 °F 30.17 in ESE 2.0 mph 4.0 mph 84% 0.00 in 0.00 W/m2
03:09 50.8 °F 46.2 °F 30.17 in Calm   6.0 mph 84% 0.00 in 0.00 W/m2
03:14 50.8 °F 46.2 °F 30.17 in ESE 1.0 mph 5.0 mph 84% 0.00 in 0.00 W/m2
03:19 50.7 °F 46.0 °F 30.17 in Calm   6.0 mph 84% 0.00 in 0.00 W/m2
03:24 50.6 °F 46.0 °F 30.17 in Calm   4.0 mph 84% 0.00 in 0.00 W/m2
03:29 50.6 °F 46.0 °F 30.17 in Calm   8.0 mph 84% 0.00 in 0.00 W/m2
03:34 50.5 °F 45.8 °F 30.17 in Calm   5.0 mph 84% 0.00 in 0.00 W/m2
03:39 50.5 °F 45.8 °F 30.17 in East 6.0 mph 6.0 mph 84% 0.00 in 0.00 W/m2
03:44 50.4 °F 46.1 °F 30.17 in ESE 1.0 mph 5.0 mph 85% 0.00 in 0.00 W/m2
03:49 50.4 °F 46.1 °F 30.16 in ESE 5.0 mph 5.0 mph 85% 0.00 in 0.00 W/m2
03:54 50.4 °F 45.8 °F 30.16 in Calm   5.0 mph 84% 0.00 in 0.00 W/m2
03:59 50.3 °F 45.7 °F 30.16 in ESE 1.0 mph 7.0 mph 84% 0.00 in 0.00 W/m2
04:04 50.3 °F 45.7 °F 30.16 in Calm   5.0 mph 84% 0.00 in 0.00 W/m2
04:09 50.2 °F 45.6 °F 30.16 in Calm   5.0 mph 84% 0.00 in 0.00 W/m2
04:14 50.2 °F 45.6 °F 30.16 in ESE 4.0 mph 6.0 mph 84% 0.00 in 0.00 W/m2
04:19 50.1 °F 45.5 °F 30.17 in ESE 2.0 mph 5.0 mph 84% 0.00 in 0.00 W/m2
04:24 50.0 °F 45.4 °F 30.17 in ESE 4.0 mph 5.0 mph 84% 0.00 in 0.00 W/m2
04:29 49.9 °F 45.3 °F 30.16 in ESE 2.0 mph 4.0 mph 84% 0.00 in 0.00 W/m2
04:34 49.9 °F 45.3 °F 30.16 in Calm   6.0 mph 84% 0.00 in 0.00 W/m2
04:39 49.8 °F 45.2 °F 30.16 in ESE 2.0 mph 11.0 mph 84% 0.00 in 0.00 W/m2
04:44 49.7 °F 45.4 °F 30.16 in ESE 1.0 mph 4.0 mph 85% 0.00 in 0.00 W/m2
04:49 49.6 °F 45.0 °F 30.16 in ESE 1.0 mph 6.0 mph 84% 0.00 in 0.00 W/m2
04:54 49.6 °F 45.0 °F 30.16 in East 1.0 mph 6.0 mph 84% 0.00 in 0.00 W/m2
04:59 49.6 °F 45.0 °F 30.16 in ESE 2.0 mph 4.0 mph 84% 0.00 in 0.00 W/m2
05:04 49.5 °F 44.9 °F 30.16 in ESE 4.0 mph 4.0 mph 84% 0.00 in 0.00 W/m2
05:10 49.5 °F 44.9 °F 30.16 in ESE 5.0 mph 5.0 mph 84% 0.00 in 0.00 W/m2
05:15 49.4 °F 44.8 °F 30.16 in Calm   6.0 mph 84% 0.00 in 0.00 W/m2
05:20 49.4 °F 44.8 °F 30.16 in ESE 2.0 mph 8.0 mph 84% 0.00 in 0.00 W/m2
05:25 49.4 °F 44.8 °F 30.16 in ESE 2.0 mph 6.0 mph 84% 0.00 in 0.00 W/m2
05:30 49.3 °F 44.7 °F 30.16 in Calm   8.0 mph 84% 0.00 in 0.00 W/m2
05:35 49.2 °F 44.6 °F 30.17 in ESE 2.0 mph 7.0 mph 84% 0.00 in 0.00 W/m2
05:40 49.2 °F 44.6 °F 30.16 in Calm   6.0 mph 84% 0.00 in 0.00 W/m2
05:45 49.1 °F 44.5 °F 30.17 in ESE 6.0 mph 6.0 mph 84% 0.00 in 0.00 W/m2
05:50 49.1 °F 44.5 °F 30.17 in ESE 2.0 mph 5.0 mph 84% 0.00 in 0.00 W/m2
05:55 49.0 °F 44.4 °F 30.17 in ESE 1.0 mph 7.0 mph 84% 0.00 in 0.00 W/m2
06:00 49.0 °F 44.4 °F 30.17 in Calm   6.0 mph 84% 0.00 in 0.00 W/m2
06:05 49.0 °F 44.4 °F 30.17 in ESE 1.0 mph 6.0 mph 84% 0.00 in 0.00 W/m2
06:10 48.9 °F 44.3 °F 30.17 in ESE 7.0 mph 7.0 mph 84% 0.00 in 0.00 W/m2
06:15 48.9 °F 44.3 °F 30.18 in Calm   6.0 mph 84% 0.00 in 0.00 W/m2
06:20 48.8 °F 44.2 °F 30.17 in Calm   6.0 mph 84% 0.00 in 0.00 W/m2
06:25 48.8 °F 44.2 °F 30.18 in Calm   5.0 mph 84% 0.00 in 0.00 W/m2
06:30 48.7 °F 43.8 °F 30.18 in Calm   7.0 mph 83% 0.00 in 0.00 W/m2
06:35 48.7 °F 43.8 °F 30.18 in Calm   4.0 mph 83% 0.00 in 0.00 W/m2
06:40 48.6 °F 43.7 °F 30.18 in ESE 1.0 mph 7.0 mph 83% 0.00 in 0.00 W/m2
06:45 48.6 °F 43.7 °F 30.18 in Calm   7.0 mph 83% 0.00 in 0.00 W/m2
06:50 48.5 °F 43.6 °F 30.18 in Calm   5.0 mph 83% 0.00 in 0.00 W/m2
06:55 48.5 °F 43.6 °F 30.19 in Calm   2.0 mph 83% 0.00 in 0.00 W/m2
07:00 48.4 °F 43.5 °F 30.19 in Calm   7.0 mph 83% 0.00 in 0.00 W/m2
07:05 48.4 °F 43.5 °F 30.19 in Calm   6.0 mph 83% 0.00 in 0.00 W/m2
07:10 48.4 °F 43.5 °F 30.19 in Calm   6.0 mph 83% 0.00 in 0.00 W/m2
07:15 48.3 °F 43.4 °F 30.20 in ESE 1.0 mph 7.0 mph 83% 0.00 in 5.00 W/m2
07:20 48.3 °F 43.4 °F 30.19 in Calm   5.0 mph 83% 0.00 in 11.00 W/m2
07:25 48.2 °F 43.3 °F 30.19 in Calm   5.0 mph 83% 0.00 in 12.00 W/m2
07:30 48.1 °F 43.2 °F 30.19 in ESE 5.0 mph 8.0 mph 83% 0.00 in 18.00 W/m2
07:35 48.0 °F 43.1 °F 30.19 in ESE 4.0 mph 9.0 mph 83% 0.00 in 21.00 W/m2
07:41 47.9 °F 43.0 °F 30.19 in Calm   8.0 mph 83% 0.00 in 30.00 W/m2
07:46 47.8 °F 42.9 °F 30.19 in ESE 1.0 mph 8.0 mph 83% 0.00 in 42.00 W/m2
07:51 47.8 °F 42.9 °F 30.20 in Calm   11.0 mph 83% 0.00 in 60.00 W/m2
07:56 47.8 °F 42.9 °F 30.20 in ESE 12.0 mph 12.0 mph 83% 0.00 in 77.00 W/m2
08:01 47.8 °F 43.2 °F 30.20 in ESE 4.0 mph 7.0 mph 84% 0.00 in 93.00 W/m2
08:05 47.8 °F 43.2 °F 30.20 in Calm   7.0 mph 84% 0.00 in 107.00 W/m2
08:11 47.8 °F 43.2 °F 30.20 in ESE 4.0 mph 8.0 mph 84% 0.00 in 125.00 W/m2
08:16 47.9 °F 43.3 °F 30.20 in Calm   7.0 mph 84% 0.00 in 139.00 W/m2
08:21 47.9 °F 43.3 °F 30.20 in Calm   7.0 mph 84% 0.00 in 169.00 W/m2
08:26 48.1 °F 43.5 °F 30.21 in Calm   8.0 mph 84% 0.00 in 193.00 W/m2
08:31 48.2 °F 43.6 °F 30.21 in ESE 1.0 mph 11.0 mph 84% 0.00 in 218.00 W/m2
08:36 48.3 °F 43.7 °F 30.21 in ESE 2.0 mph 8.0 mph 84% 0.00 in 241.00 W/m2
08:41 48.5 °F 43.9 °F 30.21 in ESE 2.0 mph 8.0 mph 84% 0.00 in 267.00 W/m2
08:46 48.7 °F 44.1 °F 30.21 in ESE 1.0 mph 8.0 mph 84% 0.00 in 276.00 W/m2
08:51 48.9 °F 44.3 °F 30.21 in ESE 2.0 mph 8.0 mph 84% 0.00 in 287.00 W/m2
08:56 49.2 °F 44.6 °F 30.21 in ESE 2.0 mph 9.0 mph 84% 0.00 in 327.00 W/m2
09:01 49.5 °F 44.6 °F 30.21 in ESE 1.0 mph 6.0 mph 83% 0.00 in 323.00 W/m2
09:06 49.7 °F 44.8 °F 30.21 in ESE 5.0 mph 8.0 mph 83% 0.00 in 346.00 W/m2
09:11 50.0 °F 44.7 °F 30.21 in Calm   8.0 mph 82% 0.00 in 376.00 W/m2
09:16 50.4 °F 44.8 °F 30.21 in ESE 1.0 mph 8.0 mph 81% 0.00 in 387.00 W/m2
09:21 50.8 °F 44.9 °F 30.21 in ESE 1.0 mph 5.0 mph 80% 0.00 in 413.00 W/m2
09:26 51.1 °F 45.2 °F 30.21 in Calm   7.0 mph 80% 0.00 in 394.00 W/m2
09:31 51.5 °F 45.2 °F 30.21 in ESE 7.0 mph 7.0 mph 79% 0.00 in 385.00 W/m2
09:36 51.9 °F 45.3 °F 30.21 in ESE 2.0 mph 7.0 mph 78% 0.00 in 461.00 W/m2
09:41 52.3 °F 45.3 °F 30.21 in Calm   9.0 mph 77% 0.00 in 473.00 W/m2
09:46 52.6 °F 44.6 °F 30.20 in ESE 2.0 mph 11.0 mph 74% 0.00 in 485.00 W/m2
09:51 53.1 °F 44.7 °F 30.20 in ESE 6.0 mph 8.0 mph 73% 0.00 in 468.00 W/m2
09:56 53.6 °F 44.8 °F 30.20 in ESE 1.0 mph 9.0 mph 72% 0.00 in 411.00 W/m2
10:01 54.0 °F 44.8 °F 30.20 in ESE 6.0 mph 8.0 mph 71% 0.00 in 504.00 W/m2
10:06 54.4 °F 44.8 °F 30.20 in ESE 5.0 mph 9.0 mph 70% 0.00 in 497.00 W/m2
10:11 54.8 °F 45.2 °F 30.21 in Calm   9.0 mph 70% 0.00 in 534.00 W/m2
10:16 55.1 °F 44.3 °F 30.20 in ESE 6.0 mph 7.0 mph 67% 0.00 in 520.00 W/m2
10:21 55.5 °F 42.7 °F 30.21 in ESE 2.0 mph 5.0 mph 62% 0.00 in 568.00 W/m2
10:26 55.9 °F 40.9 °F 30.21 in Calm     57% 0.00 in 580.00 W/m2
10:31 56.3 °F 42.2 °F 30.21 in ESE 2.0 mph 7.0 mph 59% 0.00 in 589.00 W/m2
10:36 56.7 °F 42.1 °F 30.21 in Calm   5.0 mph 58% 0.00 in 585.00 W/m2
10:41 57.1 °F 42.0 °F 30.21 in ESE 1.0 mph 1.0 mph 57% 0.00 in 638.00 W/m2
10:46 57.5 °F 42.8 °F 30.21 in Calm     58% 0.00 in 633.00 W/m2
10:51 58.0 °F 44.2 °F 30.21 in ESE 2.0 mph 5.0 mph 60% 0.00 in 668.00 W/m2
10:56 58.3 °F 44.9 °F 30.22 in Calm   5.0 mph 61% 0.00 in 617.00 W/m2
11:02 58.6 °F 45.2 °F 30.22 in SW 1.0 mph 6.0 mph 61% 0.00 in 640.00 W/m2
11:07 59.1 °F 44.8 °F 30.22 in South 4.0 mph 6.0 mph 59% 0.00 in 708.00 W/m2
11:12 59.5 °F 46.1 °F 30.22 in South 6.0 mph 6.0 mph 61% 0.00 in 708.00 W/m2
11:17 59.7 °F 45.8 °F 30.22 in Calm   1.0 mph 60% 0.00 in 712.00 W/m2
11:22 60.1 °F 46.6 °F 30.21 in SSW 1.0 mph 6.0 mph 61% 0.00 in 684.00 W/m2
11:27 60.4 °F 45.6 °F 30.21 in South 4.0 mph 5.0 mph 58% 0.00 in 670.00 W/m2
11:32 60.7 °F 46.3 °F 30.21 in SSW 4.0 mph 7.0 mph 59% 0.00 in 700.00 W/m2
11:37 61.0 °F 47.0 °F 30.21 in SSW 3.0 mph 5.0 mph 60% 0.00 in 615.00 W/m2
11:42 61.3 °F 48.6 °F 30.22 in SSW 2.0 mph 5.0 mph 63% 0.00 in 612.00 W/m2
11:47 61.7 °F 49.8 °F 30.22 in South 9.0 mph 9.0 mph 65% 0.00 in 656.00 W/m2
11:52 62.0 °F 49.3 °F 30.22 in SSE 2.0 mph 4.0 mph 63% 0.00 in 772.00 W/m2
11:57 62.3 °F 50.4 °F 30.22 in Calm   5.0 mph 65% 0.00 in 696.00 W/m2
12:02 62.6 °F 50.7 °F 30.21 in SSW 3.0 mph 8.0 mph 65% 0.00 in 714.00 W/m2
12:07 62.8 °F 50.5 °F 30.22 in Calm   3.0 mph 64% 0.00 in 700.00 W/m2
12:12 63.1 °F 50.7 °F 30.22 in SW 2.0 mph 6.0 mph 64% 0.00 in 758.00 W/m2
12:17 63.4 °F 51.0 °F 30.22 in WSW 2.0 mph 8.0 mph 64% 0.00 in 570.00 W/m2
12:22 63.5 °F 51.1 °F 30.22 in WSW 4.0 mph 9.0 mph 64% 0.00 in 737.00 W/m2
12:27 63.6 °F 52.0 °F 30.21 in SW 5.0 mph 6.0 mph 66% 0.00 in 772.00 W/m2
12:32 63.8 °F 51.4 °F 30.21 in Calm   6.0 mph 64% 0.00 in 810.00 W/m2
12:37 63.8 °F 50.5 °F 30.21 in Calm   4.0 mph 62% 0.00 in 717.00 W/m2
12:42 63.7 °F 50.5 °F 30.21 in Calm   2.0 mph 62% 0.00 in 837.00 W/m2
12:47 63.7 °F 50.5 °F 30.21 in SW 5.0 mph 7.0 mph 62% 0.00 in 759.00 W/m2
12:52 63.8 °F 50.5 °F 30.21 in SSW 8.0 mph 8.0 mph 62% 0.00 in 846.00 W/m2
12:57 63.9 °F 49.8 °F 30.21 in SSW 2.0 mph 7.0 mph 60% 0.00 in 779.00 W/m2
13:02 64.1 °F 49.0 °F 30.21 in South 1.0 mph 9.0 mph 58% 0.00 in 547.00 W/m2
13:07 64.2 °F 48.2 °F 30.20 in Calm   6.0 mph 56% 0.00 in 853.00 W/m2
13:12 64.5 °F 48.0 °F 30.20 in Calm   5.0 mph 55% 0.00 in 735.00 W/m2
13:17 64.7 °F 49.1 °F 30.20 in SW 2.0 mph 12.0 mph 57% 0.00 in 735.00 W/m2
13:22 64.8 °F 48.8 °F 30.20 in Calm   1.0 mph 56% 0.00 in 524.00 W/m2
13:27 65.0 °F 48.9 °F 30.20 in South 1.0 mph 1.0 mph 56% 0.00 in 515.00 W/m2
13:32 65.2 °F 47.7 °F 30.20 in SSW 2.0 mph 6.0 mph 53% 0.00 in 954.00 W/m2
13:37 65.4 °F 47.8 °F 30.20 in SW 1.0 mph 4.0 mph 53% 0.00 in 610.00 W/m2
13:42 65.6 °F 50.0 °F 30.19 in SSW 1.0 mph 5.0 mph 57% 0.00 in 853.00 W/m2
13:47 65.9 °F 50.2 °F 30.19 in South 1.0 mph 5.0 mph 57% 0.00 in 824.00 W/m2
13:52 66.2 °F 50.1 °F 30.19 in SW 2.0 mph 5.0 mph 56% 0.00 in 784.00 W/m2
13:57 66.3 °F 50.6 °F 30.19 in Calm   4.0 mph 57% 0.00 in 814.00 W/m2
14:02 66.5 °F 50.3 °F 30.19 in Calm   11.0 mph 56% 0.00 in 823.00 W/m2
14:08 66.5 °F 49.4 °F 30.19 in South 10.0 mph 10.0 mph 54% 0.00 in 833.00 W/m2
14:13 66.6 °F 50.4 °F 30.19 in SW 3.0 mph 5.0 mph 56% 0.00 in 786.00 W/m2
14:18 66.5 °F 48.9 °F 30.19 in SSW 1.0 mph 6.0 mph 53% 0.00 in 777.00 W/m2
14:23 66.3 °F 49.7 °F 30.18 in Calm   7.0 mph 55% 0.00 in 744.00 W/m2
14:28 66.4 °F 49.3 °F 30.18 in Calm   3.0 mph 54% 0.00 in 691.00 W/m2
14:33 66.3 °F 47.7 °F 30.18 in Calm   9.0 mph 51% 0.00 in 761.00 W/m2
14:38 66.0 °F 47.9 °F 30.18 in SSW 4.0 mph 4.0 mph 52% 0.00 in 751.00 W/m2
14:43 66.1 °F 48.0 °F 30.18 in Calm   10.0 mph 52% 0.00 in 701.00 W/m2
14:48 66.0 °F 47.4 °F 30.18 in Calm   2.0 mph 51% 0.00 in 756.00 W/m2
14:53 66.0 °F 48.4 °F 30.18 in SW 3.0 mph 9.0 mph 53% 0.00 in 717.00 W/m2
14:58 66.1 °F 45.3 °F 30.18 in South 1.0 mph 10.0 mph 47% 0.00 in 696.00 W/m2
15:03 66.3 °F 46.6 °F 30.18 in SSW 9.0 mph 9.0 mph 49% 0.00 in 691.00 W/m2
15:08 66.4 °F 47.7 °F 30.17 in Calm   10.0 mph 51% 0.00 in 710.00 W/m2
15:13 66.5 °F 47.8 °F 30.17 in Calm   3.0 mph 51% 0.00 in 582.00 W/m2
15:18 66.5 °F 48.9 °F 30.17 in WSW 1.0 mph 2.0 mph 53% 0.00 in 527.00 W/m2
15:23 66.4 °F 48.8 °F 30.17 in SSW 2.0 mph 6.0 mph 53% 0.00 in 536.00 W/m2
15:28 66.4 °F 47.7 °F 30.17 in Calm   2.0 mph 51% 0.00 in 666.00 W/m2
15:33 66.5 °F 45.1 °F 30.17 in Calm   4.0 mph 46% 0.00 in 403.00 W/m2
15:38 66.4 °F 40.7 °F 30.17 in SSE 2.0 mph 2.0 mph 39% 0.00 in 512.00 W/m2
15:43 66.4 °F 43.2 °F 30.17 in Calm   8.0 mph 43% 0.00 in 385.00 W/m2
15:48 66.3 °F 43.8 °F 30.16 in Calm   5.0 mph 44% 0.00 in 677.00 W/m2
15:53 66.3 °F 45.5 °F 30.16 in Calm   4.0 mph 47% 0.00 in 397.00 W/m2
15:58 66.3 °F 46.0 °F 30.16 in Calm   4.0 mph 48% 0.00 in 619.00 W/m2
16:03 66.4 °F 45.6 °F 30.16 in Calm   6.0 mph 47% 0.00 in 533.00 W/m2
16:08 66.4 °F 42.0 °F 30.16 in SSW 5.0 mph 5.0 mph 41% 0.00 in 450.00 W/m2
16:13 66.4 °F 42.0 °F 30.15 in WSW 7.0 mph 8.0 mph 41% 0.00 in 475.00 W/m2
16:18 66.3 °F 42.5 °F 30.16 in SSW 2.0 mph 12.0 mph 42% 0.00 in 257.00 W/m2
16:23 66.2 °F 39.9 °F 30.16 in SW 6.0 mph 7.0 mph 38% 0.00 in 199.00 W/m2
16:28 66.0 °F 42.9 °F 30.16 in Calm   2.0 mph 43% 0.00 in 193.00 W/m2
16:33 65.8 °F 44.5 °F 30.15 in Calm   1.0 mph 46% 0.00 in 237.00 W/m2
16:38 65.6 °F 45.4 °F 30.16 in WSW 2.0 mph 2.0 mph 48% 0.00 in 225.00 W/m2
16:43 65.3 °F 46.7 °F 30.16 in Calm   9.0 mph 51% 0.00 in 334.00 W/m2
16:48 65.2 °F 48.2 °F 30.16 in West 4.0 mph 8.0 mph 54% 0.00 in 287.00 W/m2
16:53 65.1 °F 48.1 °F 30.16 in SW 5.0 mph 10.0 mph 54% 0.00 in 454.00 W/m2
16:58 65.1 °F 47.6 °F 30.16 in WSW 6.0 mph 7.0 mph 53% 0.00 in 234.00 W/m2
17:03 65.0 °F 47.0 °F 30.16 in WSW 4.0 mph 7.0 mph 52% 0.00 in 229.00 W/m2
17:08 64.9 °F 47.9 °F 30.15 in SW 5.0 mph 6.0 mph 54% 0.00 in 186.00 W/m2
17:13 64.8 °F 47.3 °F 30.15 in Calm   8.0 mph 53% 0.00 in 179.00 W/m2
17:18 64.7 °F 48.2 °F 30.15 in Calm   1.0 mph 55% 0.00 in 287.00 W/m2
17:23 64.5 °F 49.0 °F 30.15 in Calm   7.0 mph 57% 0.00 in 436.00 W/m2
17:28 64.4 °F 49.3 °F 30.15 in SW 1.0 mph 8.0 mph 58% 0.00 in 315.00 W/m2
17:33 64.3 °F 48.8 °F 30.14 in Calm   7.0 mph 57% 0.00 in 207.00 W/m2
17:38 64.1 °F 49.0 °F 30.14 in WSW 2.0 mph 3.0 mph 58% 0.00 in 250.00 W/m2
17:43 64.0 °F 48.5 °F 30.14 in Calm   2.0 mph 57% 0.00 in 134.00 W/m2
17:48 63.7 °F 48.7 °F 30.14 in Calm     58% 0.00 in 91.00 W/m2
17:53 63.4 °F 48.8 °F 30.14 in West 1.0 mph 1.0 mph 59% 0.00 in 79.00 W/m2
17:58 63.1 °F 48.6 °F 30.14 in Calm   1.0 mph 59% 0.00 in 77.00 W/m2
18:03 62.8 °F 49.2 °F 30.14 in Calm   1.0 mph 61% 0.00 in 77.00 W/m2
18:08 62.5 °F 49.3 °F 30.13 in Calm     62% 0.00 in 77.00 W/m2
18:13 62.3 °F 49.6 °F 30.13 in Calm     63% 0.00 in 77.00 W/m2
18:18 62.1 °F 49.8 °F 30.13 in Calm     64% 0.00 in 70.00 W/m2
18:23 62.0 °F 49.7 °F 30.13 in Calm     64% 0.00 in 56.00 W/m2
18:28 61.8 °F 49.9 °F 30.14 in Calm     65% 0.00 in 46.00 W/m2
18:33 61.5 °F 50.0 °F 30.14 in Calm     66% 0.00 in 40.00 W/m2
18:38 61.3 °F 50.3 °F 30.14 in Calm     67% 0.00 in 39.00 W/m2
18:44 60.9 °F 50.3 °F 30.14 in Calm     68% 0.00 in 37.00 W/m2
18:49 60.6 °F 50.8 °F 30.14 in Calm     70% 0.00 in 32.00 W/m2
18:54 60.3 °F 50.1 °F 30.14 in Calm     69% 0.00 in 25.00 W/m2
18:59 60.2 °F 50.4 °F 30.14 in Calm     70% 0.00 in 21.00 W/m2
19:04 59.9 °F 50.5 °F 30.14 in Calm     71% 0.00 in 12.00 W/m2
19:09 59.6 °F 50.2 °F 30.14 in Calm     71% 0.00 in 9.00 W/m2
19:14 59.5 °F 50.1 °F 30.14 in Calm     71% 0.00 in 5.00 W/m2
19:19 59.2 °F 50.2 °F 30.14 in Calm     72% 0.00 in 0.00 W/m2
19:24 59.0 °F 50.4 °F 30.14 in Calm     73% 0.00 in 0.00 W/m2
19:29 58.7 °F 50.5 °F 30.14 in Calm     74% 0.00 in 0.00 W/m2
19:34 58.5 °F 51.0 °F 30.14 in Calm     76% 0.00 in 0.00 W/m2
19:39 58.2 °F 50.7 °F 30.14 in Calm     76% 0.00 in 0.00 W/m2
19:44 58.0 °F 50.8 °F 30.14 in Calm     77% 0.00 in 0.00 W/m2
19:49 57.7 °F 50.9 °F 30.14 in Calm     78% 0.00 in 0.00 W/m2
19:54 57.6 °F 51.1 °F 30.14 in Calm     79% 0.00 in 0.00 W/m2
19:59 57.4 °F 51.0 °F 30.15 in Calm     79% 0.00 in 0.00 W/m2
20:04 57.2 °F 51.1 °F 30.14 in Calm     80% 0.00 in 0.00 W/m2
20:09 57.0 °F 51.2 °F 30.14 in Calm     81% 0.00 in 0.00 W/m2
20:14 56.8 °F 51.0 °F 30.14 in Calm     81% 0.00 in 0.00 W/m2
20:19 56.7 °F 51.3 °F 30.14 in Calm     82% 0.00 in 0.00 W/m2
20:24 56.6 °F 51.2 °F 30.14 in Calm     82% 0.00 in 0.00 W/m2
20:29 56.5 °F 51.1 °F 30.14 in Calm     82% 0.00 in 0.00 W/m2
20:34 56.4 °F 51.3 °F 30.14 in Calm     83% 0.00 in 0.00 W/m2
20:39 56.2 °F 51.1 °F 30.14 in Calm     83% 0.00 in 0.00 W/m2
20:44 56.0 °F 50.9 °F 30.14 in Calm     83% 0.00 in 0.00 W/m2
20:49 55.7 °F 50.6 °F 30.14 in Calm     83% 0.00 in 0.00 W/m2
20:54 55.5 °F 50.8 °F 30.14 in Calm     84% 0.00 in 0.00 W/m2
20:59 55.3 °F 50.6 °F 30.14 in Calm     84% 0.00 in 0.00 W/m2
21:04 55.1 °F 50.4 °F 30.15 in Calm     84% 0.00 in 0.00 W/m2
21:09 54.9 °F 50.5 °F 30.15 in Calm     85% 0.00 in 0.00 W/m2
21:14 54.7 °F 50.3 °F 30.15 in Calm     85% 0.00 in 0.00 W/m2
21:19 54.5 °F 50.1 °F 30.15 in Calm     85% 0.00 in 0.00 W/m2
21:24 54.3 °F 49.9 °F 30.15 in Calm     85% 0.00 in 0.00 W/m2
21:25 54.3 °F 49.9 °F 30.15 in Calm     85% 0.00 in 0.00 W/m2
21:30 54.2 °F 49.8 °F 30.15 in Calm     85% 0.00 in 0.00 W/m2
21:35 54.1 °F 49.7 °F 30.15 in Calm     85% 0.00 in 0.00 W/m2
21:40 54.0 °F 49.6 °F 30.15 in Calm     85% 0.00 in 0.00 W/m2
21:45 53.9 °F 49.5 °F 30.15 in Calm     85% 0.00 in 0.00 W/m2
21:50 53.7 °F 49.3 °F 30.15 in Calm     85% 0.00 in 0.00 W/m2
21:55 53.5 °F 49.1 °F 30.15 in Calm     85% 0.00 in 0.00 W/m2
22:00 53.3 °F 48.6 °F 30.15 in Calm   4.0 mph 84% 0.00 in 0.00 W/m2
22:05 53.2 °F 48.8 °F 30.15 in Calm   4.0 mph 85% 0.00 in 0.00 W/m2
22:10 53.2 °F 48.8 °F 30.15 in Calm   6.0 mph 85% 0.00 in 0.00 W/m2
22:15 53.1 °F 48.4 °F 30.14 in Calm   5.0 mph 84% 0.00 in 0.00 W/m2
22:20 53.1 °F 48.4 °F 30.14 in ESE 2.0 mph 5.0 mph 84% 0.00 in 0.00 W/m2
22:25 53.1 °F 48.4 °F 30.14 in East 4.0 mph 6.0 mph 84% 0.00 in 0.00 W/m2
22:30 53.2 °F 48.5 °F 30.15 in East 1.0 mph 6.0 mph 84% 0.00 in 0.00 W/m2
22:35 53.2 °F 48.5 °F 30.15 in ESE 2.0 mph 6.0 mph 84% 0.00 in 0.00 W/m2
22:40 53.2 °F 48.2 °F 30.15 in East 1.0 mph 6.0 mph 83% 0.00 in 0.00 W/m2
22:45 53.2 °F 48.2 °F 30.15 in East 1.0 mph 4.0 mph 83% 0.00 in 0.00 W/m2
22:50 53.3 °F 48.0 °F 30.15 in East 1.0 mph 4.0 mph 82% 0.00 in 0.00 W/m2
22:55 53.3 °F 48.0 °F 30.15 in Calm   7.0 mph 82% 0.00 in 0.00 W/m2
23:00 53.3 °F 48.0 °F 30.15 in East 1.0 mph 4.0 mph 82% 0.00 in 0.00 W/m2
23:05 53.3 °F 47.6 °F 30.15 in East 2.0 mph 2.0 mph 81% 0.00 in 0.00 W/m2
23:10 53.3 °F 47.6 °F 30.15 in Calm   4.0 mph 81% 0.00 in 0.00 W/m2
23:15 53.3 °F 47.3 °F 30.15 in East 1.0 mph 4.0 mph 80% 0.00 in 0.00 W/m2
23:20 53.2 °F 47.2 °F 30.15 in Calm   2.0 mph 80% 0.00 in 0.00 W/m2
23:25 53.2 °F 47.2 °F 30.15 in Calm   1.0 mph 80% 0.00 in 0.00 W/m2
23:30 53.1 °F 47.1 °F 30.15 in Calm   1.0 mph 80% 0.00 in 0.00 W/m2
23:31 53.1 °F 47.1 °F 30.15 in Calm   1.0 mph 80% 0.00 in 0.00 W/m2
23:36 53.0 °F 47.0 °F 30.15 in Calm   1.0 mph 80% 0.00 in 0.00 W/m2
23:41 52.8 °F 47.1 °F 30.15 in Calm   2.0 mph 81% 0.00 in 0.00 W/m2
23:46 52.7 °F 47.0 °F 30.16 in Calm   1.0 mph 81% 0.00 in 0.00 W/m2
23:51 52.6 °F 46.9 °F 30.15 in East 1.0 mph 5.0 mph 81% 0.00 in 0.00 W/m2
23:56 52.5 °F 46.8 °F 30.15 in Calm   4.0 mph 81% 0.00 in 0.00 W/m2
Foresthill Weather
 WU-history PHP script courtesy of   Juneau County Weather.
powered by Cumulus v1.9.3 (1059)
Ambient Weather VWS v14.00
Top Contact Website Map Copyright © 2007 - 2018 Foresthillweather.com Never base important decisions on this or any weather information obtained from the Internet